Regional Weather Roundup
Issued by NWS

Home | Current Version | Previous Version | Text Only | Print | Product List | Glossary On
Versions: 1 2 3 4 5 6 7 8 9 10 11 12 13 14 15 16 17 18 19 20 21 22 23 24 25 26 27 28 29 30 31 32 33 34 35 36 37 38 39 40 41 42 43 44 45 46 47 48 49 50
000
ASCA44 KEWX 030920
RWRMX

LATIN AMERICA AND CARIBBEAN REGIONAL WEATHER ROUNDUP
NATIONAL WEATHER SERVICE AUSTIN/SAN ANTONIO TX
300 AM CST TUE MAR 03 2015

NOTE: "FAIR" INDICATED FEW OR NO CLOUDS BELOW 12,000 FEET WITH NO
SIGNIFICANT WEATHER AND/OR OBSTRUCTIONS TO VISIBILITY.

BAJA CALIFORNIA

CITY           SKY/WX    TMP DP  RH WIND       PRES   REMARKS
TIJUANA        PTCLDY    50  43  76 E6        29.98F WCI  48

NORTHWESTERN MEXICO

CITY           SKY/WX    TMP DP  RH WIND       PRES   REMARKS

NORTHEASTERN MEXICO

CITY           SKY/WX    TMP DP  RH WIND       PRES   REMARKS
MONTERREY      DRZL/FOG  50  50 100 CALM      30.03F VSB 1/2
CD. VICTORIA   CLEAR     61  61 100 SE9       30.01F

WESTERN MEXICO

CITY           SKY/WX    TMP DP  RH WIND       PRES   REMARKS
AGUASCALIENTES CLEAR     55  36  47 CALM      30.23F
DEL BAJIO      CLEAR     54  39  58 CALM      30.28F
GUADALAJARA    CLEAR     54  39  58 CALM      30.19F
MAZATLAN       CLEAR     57  54  88 N8        29.92F
P. VALLARTA    CLEAR     66  63  88 N5        29.93F
ZACATECAS      CLEAR     45  28  53 CALM      30.25F

CENTRAL MEXICO

CITY           SKY/WX    TMP DP  RH WIND       PRES   REMARKS
MEXICO CITY    CLEAR     52  43  71 E6        30.30F
MORELIA        CLEAR     52  39  62 CALM      30.21F
QUERETARO      PTCLDY    48  45  87 E7        30.29F WCI  45
S. LUIS POTOSI PTCLDY    50  46  87 CALM      30.24F
TOLUCA         CLEAR     39  32  75 NE5       30.37R WCI  36

SOUTHERN MEXICO

CITY           SKY/WX    TMP DP  RH WIND       PRES   REMARKS
ACAPULCO       CLEAR     73  68  83 W2        29.90S

YUCATAN PENINSULA

CITY           SKY/WX    TMP DP  RH WIND       PRES   REMARKS
CANCUN         CLEAR     77  72  83 NE9       30.05F
COZUMEL        PTCLDY    70  68  94 E6        30.04F
MERIDA         CLEAR     73  70  88 E8        30.03F
TAPACHULA      CLEAR     75  72  88 CALM      29.87F

CENTRAL AMERICA

CITY           SKY/WX    TMP DP  RH WIND       PRES   REMARKS
MANAGUA          N/A     73  66  78 E5        29.86S

CARIBBEAN

CITY           SKY/WX    TMP DP  RH WIND       PRES   REMARKS
ARUBA          PTCLDY    77  70  78 E12       29.89R
KINGSTON       PTCLDY    75  68  78 NW7       29.94
NASSAU         PTCLDY    72  68  88 VRB2      30.15F
SAN JUAN       PTCLDY    72  70  94 CALM      30.00S
SANTO DOMINGO  PTCLDY    70  70 100 N7        30.00S
ST. MAARTEN    PTCLDY    77  66  69 E12       29.97S

$$



USA.gov is the U.S. government's official web portal to all federal, state and local government web resources and services.